This demonstration page uses our WeatherBlox Daily Observations layout. Learn more.

40.92945, -100.16068

Hourly Observations for October 25, 2019

Temp ( °F °C ) Dew Point ( °F °C ) Humidity (%) Winds ( mph kmh ) Pressure ( in mb ) Visibility ( mi km ) Precip ( " mm )
12:15 am 00:15 Clear 24 -4.4 21 -6.3 87 87 Calm 30.5 1033 10 16.0934 0 0
12:35 am 00:35 Clear 24 -4.7 20 -6.6 87 87 Calm 30.5 1033 10 16.0934 0 0
12:55 am 00:55 Clear 24 -4.7 20 -6.5 87 87 N 3 6 30.5 1033 10 16.0934 0 0
1:15 am 01:15 Clear 23 -5.2 20 -6.8 89 89 Calm 30.53 1034 10 16.0934 0 0
1:35 am 01:35 Clear 24 -4.5 21 -6.2 88 88 Calm 30.5 1033 10 16.0934 0 0
1:55 am 01:55 Clear 23 -5 19 -7 86 86 Calm 30.53 1034 10 16.0934 0 0
2:15 am 02:15 Clear 23 -4.9 20 -6.6 88 88 Calm 30.48 1032 10 16.0934 0 0
2:35 am 02:35 Clear 23 -5.2 19 -7.2 86 86 Calm 30.48 1032 10 16.0934 0 0
2:55 am 02:55 Clear 23 -4.9 20 -6.9 86 86 Calm 30.5 1033 10 16.0934 0 0
3:15 am 03:15 Clear 24 -4.7 19 -7.1 84 84 Calm 30.5 1033 10 16.0934 0 0
3:35 am 03:35 Clear 23 -5.2 19 -7.1 87 87 Calm 30.53 1034 10 16.0934 0 0
3:55 am 03:55 Clear 21 -6.2 18 -7.8 89 89 Calm 30.5 1033 10 16.0934 0 0
4:15 am 04:15 Clear 21 -5.9 19 -7.5 89 89 W 5 7 30.5 1033 10 16.0934 0 0
4:35 am 04:35 Clear 23 -5.2 19 -7.3 85 85 Calm 30.48 1032 10 16.0934 0 0
4:55 am 04:55 Clear 21 -6.1 18 -7.8 88 88 Calm 30.5 1033 10 16.0934 0 0
5:15 am 05:15 Clear 22 -5.4 19 -7.5 85 85 Calm 30.5 1033 10 16.0934 0 0
5:35 am 05:35 Clear 22 -5.4 18 -7.6 85 85 W 3 6 30.5 1033 10 16.0934 0 0
5:55 am 05:55 Clear 26 -3.1 21 -6.2 79 79 Calm 30.48 1032 10 16.0934 0 0
6:15 am 06:15 Clear 24 -4.7 19 -7 84 84 Calm 30.48 1032 10 16.0934 0 0
6:35 am 06:35 Clear 23 -5.2 19 -7.3 85 85 Calm 30.48 1032 10 16.0934 0 0
6:55 am 06:55 Clear 24 -4.2 20 -6.9 82 82 Calm 30.48 1032 10 16.0934 0 0
7:15 am 07:15 Clear 23 -4.8 20 -6.7 87 87 Calm 30.45 1031 10 16.0934 0 0
7:35 am 07:35 Clear 24 -4.5 20 -6.7 85 85 Calm 30.45 1031 10 16.0934 0 0
7:55 am 07:55 Clear 22 -5.5 19 -7.4 87 87 Calm 30.45 1031 10 16.0934 0 0
8:15 am 08:15 Sunny 22 -5.6 19 -7.1 89 89 Calm 30.48 1032 7 11.26538 0 0
8:35 am 08:35 Sunny 23 -5.2 20 -6.7 89 89 NNW 6 9 30.48 1032 10 16.0934 0 0
8:55 am 08:55 Sunny 27 -2.6 22 -5.4 81 81 W 3 6 30.42 1030 10 16.0934 0 0
9:15 am 09:15 Sunny 31 -0.3 25 -4.1 76 76 W 3 6 30.42 1030 10 16.0934 0 0
9:35 am 09:35 Sunny 34 1.3 26 -3.3 72 72 WSW 6 9 30.39 1029 10 16.0934 0 0
9:55 am 09:55 Sunny 38 3.2 27 -2.8 65 65 W 6 9 30.39 1029 10 16.0934 0 0
10:15 am 10:15 Sunny 41 4.8 27 -2.8 58 58 WSW 6 9 30.36 1028 10 16.0934 0 0
10:35 am 10:35 Sunny 43 6.3 25 -3.8 49 49 WSW 8 13 30.33 1027 10 16.0934 0 0
10:55 am 10:55 Sunny 44 6.5 25 -3.8 48 48 WSW 7 11 30.33 1027 10 16.0934 0 0
11:15 am 11:15 Sunny 44 6.9 25 -3.7 47 47 WSW 5 7 30.33 1027 10 16.0934 0 0
11:35 am 11:35 Sunny 45 7.4 26 -3.6 46 46 WSW 5 7 30.3 1026 10 16.0934 0 0
11:55 am 11:55 Sunny 47 8.4 26 -3.5 43 43 SW 3 6 30.3 1026 10 16.0934 0 0
12:15 pm 12:15 Sunny 49 9.3 26 -3.4 41 41 SW 6 9 30.27 1025 10 16.0934 0 0
12:35 pm 12:35 Sunny 51 10.3 26 -3.6 38 38 SW 6 9 30.24 1024 10 16.0934 0 0
12:55 pm 12:55 Sunny 52 11.1 26 -3.5 36 36 W 3 6 30.24 1024 10 16.0934 0 0
1:15 pm 13:15 Sunny 54 12 25 -4 33 33 SSW 3 6 30.18 1022 10 16.0934 0 0
1:35 pm 13:35 Sunny 55 12.8 25 -3.7 32 32 W 3 6 30.18 1022 10 16.0934 0 0
1:55 pm 13:55 Sunny 55 13 25 -3.9 31 31 WSW 6 9 30.15 1021 10 16.0934 0 0
2:15 pm 14:15 Sunny 57 14.1 24 -4.5 27 27 WSW 6 9 30.15 1021 10 16.0934 0 0
2:35 pm 14:35 Sunny 58 14.7 23 -5.1 25 25 WSW 8 13 30.09 1019 10 16.0934 0 0
2:55 pm 14:55 Sunny 59 15.1 23 -4.8 25 25 W 8 13 30.09 1019 10 16.0934 0 0
3:15 pm 15:15 Sunny 60 15.3 22 -5.4 24 24 W 10 17 30.06 1018 10 16.0934 0 0
3:35 pm 15:35 Sunny 60 15.5 21 -5.9 23 23 WSW 3 6 30.06 1018 10 16.0934 0 0
3:55 pm 15:55 Sunny 60 15.6 22 -5.7 23 23 WSW 5 7 30.06 1018 10 16.0934 0 0
4:15 pm 16:15 Sunny 61 16 22 -5.4 23 23 SW 6 9 30.06 1018 10 16.0934 0 0
4:35 pm 16:35 Sunny 62 16.4 23 -4.9 23 23 SW 9 15 30.06 1018 10 16.0934 0 0
4:55 pm 16:55 Sunny 61 16.1 23 -4.9 23 23 WSW 7 11 30.03 1017 10 16.0934 0 0
5:15 pm 17:15 Sunny 61 16.1 23 -4.8 24 24 S 10 17 30.03 1017 10 16.0934 0 0
5:35 pm 17:35 Sunny 60 15.6 24 -4.7 25 25 S 10 17 30.03 1017 10 16.0934 0 0
5:55 pm 17:55 Sunny 59 15 25 -4.1 27 27 S 9 15 30.03 1017 10 16.0934 0 0
6:15 pm 18:15 Sunny 57 13.8 25 -4.1 29 29 S 8 13 30.03 1017 10 16.0934 0 0
6:35 pm 18:35 Sunny 54 12.1 24 -4.3 32 32 S 9 15 30.06 1018 10 16.0934 0 0
6:55 pm 18:55 Clear 49 9.7 24 -4.6 36 36 S 8 13 30.06 1018 10 16.0934 0 0
7:15 pm 19:15 Clear 47 8.5 23 -5.2 38 38 S 7 11 30.06 1018 10 16.0934 0 0
7:35 pm 19:35 Clear 46 7.5 22 -5.5 40 40 S 8 13 30.06 1018 10 16.0934 0 0
7:55 pm 19:55 Clear 44 6.8 22 -5.8 41 41 S 8 13 30.09 1019 10 16.0934 0 0
8:15 pm 20:15 Clear 43 6.1 22 -5.6 43 43 SSE 9 15 30.09 1019 10 16.0934 0 0
8:35 pm 20:35 Clear 47 8.1 23 -5.1 39 39 S 10 17 30.06 1018 10 16.0934 0 0
8:55 pm 20:55 Clear 46 7.5 23 -5 41 41 S 10 17 30.06 1018 10 16.0934 0 0
9:15 pm 21:15 Clear 46 8 23 -5 40 40 S 13 20 30.06 1018 10 16.0934 0 0
9:35 pm 21:35 Clear 46 7.8 23 -4.8 41 41 S 12 19 30.06 1018 10 16.0934 0 0
9:55 pm 21:55 Clear 46 7.5 23 -4.9 41 41 S 13 20 30.06 1018 10 16.0934 0 0
10:15 pm 22:15 Clear 45 7.2 23 -5 42 42 S 12 19 30.06 1018 10 16.0934 0 0
10:35 pm 22:35 Clear 45 7 23 -5.1 42 42 S 13 20 30.09 1019 10 16.0934 0 0
10:55 pm 22:55 Clear 44 6.6 23 -5 44 44 S 13 20 30.09 1019 10 16.0934 0 0
11:15 pm 23:15 Clear 43 6.3 23 -5.1 44 44 S 13 20 30.09 1019 10 16.0934 0 0
11:35 pm 23:35 Clear 43 6 23 -5.2 45 45 S 13 20 30.06 1018 10 16.0934 0 0
11:55 pm 23:55 Clear 43 6.3 22 -5.3 44 44 S 14 22 30.06 1018 10 16.0934 0 0

Powered by AerisWeather